Siloam Springs, AR

11:51 AM CST on February 22, 2017 (GMT -0600)
Smith

Weather History for KSLG - December, 2013

Change the Weather History Date:

Monday, December 9, 2013

  Actual Average Record
Temperature  
Mean Temperature 22 °F -  
Max Temperature 24 °F 47 °F 68 °F (2015)
Min Temperature 19 °F 31 °F 3 °F (2005)
Degree Days  
Heating Degree Days 44    
Moisture  
Dew Point 11 °F    
Average Humidity 61    
Maximum Humidity 74    
Minimum Humidity 50    
Precipitation  
Precipitation 0.00 in - - ()
Sea Level Pressure  
Sea Level Pressure 30.28 in    
Wind  
Wind Speed 10 mph (North)    
Max Wind Speed 14 mph    
Max Gust Speed 16 mph    
Visibility 10 miles    
Events      
Averages and records for this station are not official NWS values.
T = Trace of Precipitation, MM = Missing Value Source: NWS Daily Summary

Daily Weather History Graph

Daily Weather History Graph

Search for Another Location

Airport or City:

Trip Planner

Search our weather history database for the weather conditions in past years. The results will help you decide how hot, cold, wet, or windy it might be!

Date:

Astronomy

Dec. 09, 2013 Rise Set
Actual Time 7:17 AM CST 5:03 PM CST
Civil Twilight 6:49 AM CST 5:31 PM CST
Nautical Twilight 6:17 AM CST 6:03 PM CST
Astronomical Twilight 5:45 AM CST 6:35 PM CST
Moon 12:21 PM CST (12/9) No Moon Set
Length of Visible Light 10h 42m
Length of Day
9h 45m
Waxing Crescent, 51% of the Moon is Illuminated
Dec 9
Waxing Crescent
Dec 17
Full
Dec 25
Last Quarter
Jan 1
New
Jan 7
First Quarter

Hourly Weather History & Observations

Time (CST) Temp. Windchill Dew Point Humidity Pressure Visibility Wind Dir Wind Speed Gust Speed Precip Events Conditions
9:55 AM 23.0 °F 11.7 °F 12.2 °F 63% 30.32 in 10.0 mi North 11.5 mph - N/A   Unknown
10:15 AM 24.8 °F 14.6 °F 12.2 °F 59% 30.33 in 10.0 mi North 10.4 mph - N/A   Partly Cloudy
10:35 AM 24.8 °F 15.3 °F 12.2 °F 59% 30.32 in 10.0 mi North 9.2 mph - N/A   Partly Cloudy
10:55 AM 24.8 °F 14.0 °F 12.2 °F 59% 30.32 in 10.0 mi North 11.5 mph - N/A   Clear
11:15 AM 24.8 °F 12.9 °F 12.2 °F 59% 30.33 in 10.0 mi NNW 13.8 mph - N/A   Clear
11:35 AM 24.8 °F 14.0 °F 12.2 °F 59% 30.32 in 10.0 mi North 11.5 mph - N/A   Clear
11:55 AM 24.8 °F 14.6 °F 12.2 °F 59% 30.31 in 10.0 mi North 10.4 mph - N/A   Clear
12:15 PM 24.8 °F 14.0 °F 12.2 °F 59% 30.28 in 10.0 mi North 11.5 mph - N/A   Clear
12:35 PM 24.8 °F 14.0 °F 12.2 °F 59% 30.27 in 10.0 mi North 11.5 mph - N/A   Clear
12:55 PM 24.8 °F 14.6 °F 12.2 °F 59% 30.26 in 10.0 mi NNE 10.4 mph - N/A   Clear
1:15 PM 24.8 °F 14.0 °F 12.2 °F 59% 30.26 in 10.0 mi NNE 11.5 mph 16.1 mph N/A   Clear
1:35 PM 24.8 °F 14.6 °F 10.4 °F 54% 30.26 in 10.0 mi NNE 10.4 mph - N/A   Clear
1:55 PM 24.8 °F 16.9 °F 10.4 °F 54% 30.24 in 10.0 mi NNE 6.9 mph - N/A   Clear
2:15 PM 24.8 °F 14.0 °F 10.4 °F 54% 30.24 in 10.0 mi NNE 11.5 mph - N/A   Clear
2:35 PM 24.8 °F 15.3 °F 8.6 °F 50% 30.23 in 10.0 mi NNE 9.2 mph - N/A   Clear
2:55 PM 24.8 °F 14.0 °F 8.6 °F 50% 30.24 in 10.0 mi North 11.5 mph - N/A   Clear
3:15 PM 24.8 °F 15.3 °F 8.6 °F 50% 30.23 in 10.0 mi North 9.2 mph - N/A   Clear
3:35 PM 24.8 °F 16.1 °F 8.6 °F 50% 30.23 in 10.0 mi NNE 8.1 mph - N/A   Clear
3:55 PM 24.8 °F 15.3 °F 10.4 °F 54% 30.24 in 10.0 mi North 9.2 mph - N/A   Clear
4:15 PM 24.8 °F 16.9 °F 10.4 °F 54% 30.25 in 10.0 mi North 6.9 mph - N/A   Mostly Cloudy
4:35 PM 24.8 °F 19.1 °F 10.4 °F 54% 30.25 in 10.0 mi NNE 4.6 mph - N/A   Overcast
4:55 PM 23.0 °F 17.0 °F 10.4 °F 59% 30.25 in 10.0 mi North 4.6 mph - N/A   Overcast
5:15 PM 23.0 °F 13.9 °F 10.4 °F 59% 30.26 in 10.0 mi North 8.1 mph - N/A   Overcast
5:35 PM 23.0 °F 13.9 °F 8.6 °F 54% 30.25 in 10.0 mi North 8.1 mph - N/A   Overcast
5:55 PM 23.0 °F 12.4 °F 8.6 °F 54% 30.25 in 10.0 mi North 10.4 mph - N/A   Overcast
6:15 PM 21.2 °F 12.6 °F 8.6 °F 58% 30.24 in 10.0 mi North 6.9 mph - N/A   Overcast
6:35 PM 21.2 °F 11.7 °F 10.4 °F 63% 30.25 in 10.0 mi North 8.1 mph - N/A   Mostly Cloudy
6:55 PM 21.2 °F 9.5 °F 10.4 °F 63% 30.26 in 10.0 mi North 11.5 mph - N/A   Overcast
7:15 PM 21.2 °F 11.7 °F 10.4 °F 63% 30.28 in 10.0 mi North 8.1 mph - N/A   Overcast
7:35 PM 21.2 °F 12.6 °F 10.4 °F 63% 30.28 in 10.0 mi NNW 6.9 mph - N/A   Overcast
7:55 PM 21.2 °F 10.9 °F 10.4 °F 63% 30.30 in 10.0 mi NW 9.2 mph - N/A   Overcast
8:15 PM 21.2 °F 10.9 °F 10.4 °F 63% 30.30 in 10.0 mi NNW 9.2 mph - N/A   Overcast
8:35 PM 21.2 °F 12.6 °F 12.2 °F 68% 30.31 in 10.0 mi NNW 6.9 mph - N/A   Overcast
8:55 PM 21.2 °F 13.6 °F 12.2 °F 68% 30.32 in 10.0 mi NNW 5.8 mph - N/A   Overcast
9:15 PM 21.2 °F 11.7 °F 12.2 °F 68% 30.32 in 10.0 mi North 8.1 mph - N/A   Overcast
9:35 PM 21.2 °F 13.6 °F 12.2 °F 68% 30.32 in 8.0 mi NNW 5.8 mph - N/A   Overcast
9:55 PM 21.2 °F 13.6 °F 12.2 °F 68% 30.32 in 7.0 mi NNW 5.8 mph - N/A   Overcast
10:15 PM 21.2 °F 13.6 °F 12.2 °F 68% 30.32 in 10.0 mi NNW 5.8 mph - N/A   Overcast
10:35 PM 21.2 °F 11.7 °F 12.2 °F 68% 30.31 in 7.0 mi NNW 8.1 mph - N/A   Overcast
10:55 PM 19.4 °F 9.5 °F 12.2 °F 74% 30.32 in 8.0 mi NNW 8.1 mph - N/A   Overcast
11:15 PM 19.4 °F 9.5 °F 12.2 °F 74% 30.32 in 8.0 mi NW 8.1 mph - N/A   Overcast
11:35 PM 19.4 °F 6.0 °F 12.2 °F 74% 30.33 in 7.0 mi NW 13.8 mph - N/A   Overcast
11:55 PM 19.4 °F 6.0 °F 10.4 °F 68% 30.35 in 5.0 mi NW 13.8 mph - N/A   Overcast